Weather in Iyme

Russia / Tyva Republic     51°34′50″N   91°35′35″E
temp.,
°C
wind,
m/s
gust,
m/s
humid.,
%
clouds,
%
prec.,
mm/h
press.,
hPa
HPBL,
m
8 march, mon
mon801:00−15nne017920 0.0 102720
04:00−14sse018097 0.0 102620
07:00−17ene018693 0.0 102720
10:00−11e008221 0.0 102557
13:00−7sse118011 0.0 1022235
16:00−5ssw00830 0.0 1020200
19:00−11n00910 0.0 102121
22:00−11e018883 0.0 102121
9 march, tue
tue901:00−10sse118991 0.0 102121
04:00−12ene1190100 0.0 102221
07:00−12se1189100 0.0 102521
10:00−8nne128699 0.0 102587
13:00−5wsw118153 0.0 1025206
16:00−3s108232 0.0 1025152
19:00−8nne118826 0.0 102721
22:00−9ne22850 0.0 102821
10 march, wed
wed1001:00−11ne22830 0.0 102721
04:00−14ne11830 0.0 102721
07:00−16sw11880 0.0 102720
10:00−11sse11882 0.0 102673
13:00−7e01853 0.0 1023196
16:00−4ese01832 0.0 1021216
19:00−10nne11921 0.0 102321
22:00−12ne12830 0.0 102421
11 march, thu
thu1101:00−14nne11840 0.0 102421
04:00−14nne128633 0.0 102220
07:00−16nne119042 0.0 102220
10:00−11sse10851 0.0 1020112
13:00−7se117947 0.0 1018249
16:00−4nne1274100 0.0 1016304
19:00−8ne1284100 0.0 101621
22:00−9ne1184100 0.0 101821
12 march, fri
fri1201:00−8sw2288100 0.1 102126
04:00−8ssw0196100 0.4 102422
07:00−12n019379 0.4 102621
10:00−8ene119296 0.0 1023109
13:00−3ene228880 0.1 1019329
16:00−1ene128320 0.0 1016340
19:00−8sse019214 0.0 101621
22:00−10nnw019086 0.0 101821